Lapse_Rate
5.8 5.6 5.7 5.6 5.5 5.4 5.2 5.1 4.9 4.7 4.8 5.0 5.0 5.1 4.8 4.6 6.7 9.5 6.8 8.1 7.6 6.8 5.9 9.5 9.3 9.1 9.0 8.3 8.4 8.3 6.5 6.5 6.5 6.5 6.5 7.1 6.6 7.5 7.5 7.3 7.6 7.9 7.9 8.0 8.8
5.5 5.6 5.6 5.6 5.5 5.5 5.4 5.0 4.9 4.9 4.5 4.3 4.5 4.7 4.4 4.4 8.6 8.7 7.4 6.7 6.4 6.4 9.4 8.8 8.3 8.6 8.0 7.7 7.8 6.9 6.5 6.5 6.5 6.5 6.5 6.9 6.9 7.1 7.0 7.0 7.2 7.6 8.2 7.7 7.2
5.6 5.7 5.7 5.8 5.8 5.8 5.7 5.4 5.2 5.0 4.8 4.5 4.3 4.3 3.9 4.4 8.3 8.5 6.7 6.1 5.8 6.5 9.7 9.3 8.9 8.4 7.3 7.7 7.4 6.9 6.5 6.5 6.7 7.1 7.2 6.9 6.9 7.5 6.8 6.5 7.1 7.1 7.7 8.2 8.0
5.9 5.8 5.8 5.7 5.5 5.6 5.6 5.5 5.3 5.2 5.1 4.8 4.5 4.1 3.4 6.6 6.5 8.2 6.3 6.7 6.2 7.8 9.4 8.8 8.3 7.3 6.7 6.5 7.5 6.5 6.8 6.9 7.0 7.3 7.1 6.5 7.4 6.9 7.1 7.1 7.4 7.9 8.2 8.2 7.9
6.0 5.8 5.8 5.6 5.4 5.5 5.4 5.3 5.2 5.2 5.1 4.9 4.9 4.6 6.0 8.1 7.9 8.3 6.8 7.2 9.2 9.5 8.8 8.4 7.7 7.4 6.5 6.7 7.0 6.5 6.5 7.1 7.3 7.4 7.3 7.4 6.9 6.8 7.0 7.8 8.1 8.1 8.1 8.0 7.9
6.0 5.7 5.7 5.5 5.3 5.2 5.2 5.2 5.0 5.1 4.8 4.9 5.0 4.3 7.7 6.9 7.8 8.3 7.6 8.0 9.1 9.2 8.8 8.7 8.0 8.1 7.2 6.9 6.6 7.1 6.9 6.9 7.1 7.0 7.2 6.7 6.8 7.2 7.4 8.0 7.8 7.8 7.8 8.1 8.2
6.0 5.7 5.4 5.3 5.1 5.0 4.9 4.9 4.9 4.8 4.6 4.7 5.0 6.5 8.3 7.9 8.5 8.2 8.9 8.1 8.7 9.0 8.5 8.9 8.8 7.9 7.6 6.5 7.6 7.2 6.5 6.5 6.7 6.9 6.6 7.1 6.5 6.5 7.6 7.9 7.6 7.6 7.8 8.0 8.1
5.7 5.6 5.3 5.1 4.8 4.7 4.7 4.7 4.7 4.1 4.3 4.7 4.3 7.0 7.7 7.8 7.8 9.7 8.9 8.6 9.1 9.4 8.9 9.2 9.1 8.2 7.6 7.8 7.1 6.5 6.5 6.5 6.5 6.6 6.9 6.8 6.5 6.5 7.7 7.6 7.3 7.6 7.7 7.8 8.1
5.4 5.3 5.2 5.0 4.8 4.6 4.5 4.3 3.7 4.0 4.0 4.4 6.8 7.1 7.4 8.6 8.8 8.2 9.2 8.4 8.4 9.0 9.2 9.3 8.7 7.6 7.4 6.5 6.5 6.5 6.5 6.5 6.5 6.6 6.5 6.5 6.5 6.5 7.5 7.3 7.2 7.5 7.7 7.7 8.0
5.8 5.4 5.0 4.8 4.6 4.5 4.0 3.7 3.9 4.5 5.9 6.0 7.0 7.3 8.2 7.9 8.6 7.7 9.7 8.5 8.4 8.4 8.0 7.8 7.4 6.5 6.5 6.5 6.5 6.5 6.5 6.5 6.5 6.5 6.5 6.5 6.5 6.5 7.2 7.1 7.1 7.4 7.6 7.8 7.7
5.3 5.3 5.0 4.7 4.6 3.9 4.9 6.4 8.0 8.0 7.5 7.2 7.7 7.6 8.1 8.7 8.6 8.8 8.7 8.7 8.5 7.7 6.5 7.0 6.5 6.5 6.5 6.5 6.5 6.5 6.5 6.5 6.5 6.5 6.5 6.5 6.5 6.5 6.8 7.0 6.9 7.2 7.4 7.7 7.6
4.9 5.2 5.1 4.8 4.5 4.5 6.2 6.9 5.7 5.5 7.1 6.7 6.8 7.0 8.6 7.7 7.6 8.3 8.9 7.5 7.2 6.5 6.7 6.5 6.5 6.5 6.5 6.5 6.5 6.5 6.5 6.5 6.5 6.5 6.5 6.5 6.5 6.5 6.5 6.7 7.0 7.2 7.2 7.5 7.7
4.9 4.9 5.0 4.9 4.5 5.9 5.1 4.7 5.4 6.1 7.1 7.4 7.6 7.8 8.1 8.5 7.5 7.6 8.3 7.8 6.7 6.5 6.5 6.5 6.5 6.6 6.5 6.5 6.5 6.5 6.5 6.5 6.5 6.5 6.5 6.5 6.5 6.5 6.5 6.9 7.2 7.3 7.6 7.7 7.4
4.9 4.8 5.0 4.9 5.7 6.1 6.1 5.3 5.4 7.0 6.5 6.5 6.9 7.7 8.2 8.2 7.0 8.7 8.7 7.8 6.8 6.5 6.5 6.5 6.6 6.5 6.5 6.5 6.5 6.5 6.5 6.5 6.5 6.5 6.5 6.5 6.5 6.5 6.5 6.5 6.5 7.0 7.4 7.7 7.7
4.8 4.8 4.8 4.3 6.7 7.4 5.3 5.2 6.1 6.8 6.5 6.5 6.9 7.7 8.3 7.2 7.5 7.5 8.9 7.8 6.5 6.5 6.5 6.5 6.5 6.5 6.5 6.5 6.5 6.5 6.5 6.5 6.5 6.5 6.5 6.5 6.5 6.5 6.5 6.5 6.5 6.5 7.2 7.7 8.0
4.7 4.4 4.6 6.2 6.6 4.6 4.4 5.6 6.8 6.5 6.5 6.5 7.0 6.7 6.7 7.0 7.1 7.6 7.5 8.1 7.8 6.5 6.5 6.5 7.1 6.6 6.5 6.5 6.5 6.5 6.5 6.5 6.5 6.5 6.5 6.5 6.5 6.5 6.5 6.5 6.5 6.5 7.3 7.4 7.8
4.3 4.0 5.4 5.1 6.4 4.0 4.8 7.6 6.5 6.5 6.5 6.5 6.5 6.5 6.5 6.5 6.5 6.6 6.5 6.5 6.5 6.5 6.5 6.5 6.5 6.5 6.7 6.5 6.5 6.5 6.5 6.5 6.5 6.5 6.5 6.5 6.5 6.5 6.5 6.5 6.5 6.5 6.9 7.6 7.8
4.0 4.5 3.3 3.7 3.7 4.1 6.0 6.6 6.5 6.5 6.5 6.5 6.5 6.5 6.5 6.5 6.5 6.5 6.5 6.5 6.5 6.5 6.5 6.5 6.5 6.5 6.5 6.5 6.5 6.5 6.5 6.5 6.5 6.5 6.5 6.5 6.5 6.5 6.5 6.5 7.0 7.1 7.2 7.3 7.5
4.7 5.6 5.6 3.8 3.5 5.0 7.3 6.5 6.5 6.5 6.5 6.5 6.5 6.5 6.5 6.5 6.5 6.5 6.5 6.5 6.5 6.5 6.5 6.5 6.5 6.5 6.5 6.5 6.5 6.5 6.5 6.5 6.5 6.5 6.5 6.5 6.5 6.5 6.5 6.5 6.5 6.8 7.1 7.2 7.5
7.0 6.9 5.4 3.2 3.5 6.9 6.1 6.5 6.5 6.7 6.7 6.5 6.5 6.5 6.5 6.5 6.5 6.5 6.5 6.5 6.5 6.6 6.8 6.5 6.5 6.5 6.5 6.6 6.6 6.5 6.5 6.5 6.5 6.5 6.5 6.5 6.5 6.5 6.5 6.5 6.5 6.5 6.7 7.2 7.6
7.5 7.0 5.1 3.9 5.0 6.1 6.5 6.5 6.5 7.3 7.2 6.5 6.5 6.5 6.5 6.5 6.5 6.5 6.5 6.5 6.5 6.5 6.9 6.5 6.5 6.5 6.5 6.5 6.5 6.5 6.5 6.5 6.5 6.5 6.5 6.5 6.5 6.5 6.5 6.5 6.5 6.5 7.1 7.2 7.5
6.9 5.8 5.3 4.9 6.2 6.9 6.5 6.5 7.0 6.8 7.4 6.8 6.7 6.5 6.5 6.5 6.5 6.5 6.5 6.5 7.1 6.9 6.5 6.5 6.5 6.5 6.5 6.5 6.5 6.5 6.5 6.5 6.5 6.5 6.5 6.5 6.5 6.5 6.5 6.5 6.5 6.6 6.9 5.9 5.8
6.0 6.8 6.3 5.9 6.5 6.5 6.6 6.5 6.9 6.6 6.6 6.5 6.5 6.6 6.5 6.5 6.5 6.5 6.5 6.9 7.2 6.6 6.5 6.5 6.5 6.5 6.5 6.5 6.5 6.5 6.5 6.5 6.5 6.5 6.5 6.5 6.5 6.5 6.5 6.5 6.8 6.8 6.8 6.3 5.7
6.0 6.5 6.4 7.1 6.9 6.5 6.5 6.5 6.5 7.3 6.8 7.0 6.6 6.8 6.5 6.5 6.5 6.5 6.5 6.6 7.1 7.0 7.1 6.9 6.5 6.5 6.5 6.5 6.5 6.5 6.5 6.5 6.5 6.5 6.5 6.5 6.5 6.5 6.5 6.5 6.5 7.1 6.8 6.7 6.7
5.3 6.0 4.1 6.5 6.7 6.7 6.7 6.5 6.5 6.5 7.0 7.2 6.5 6.5 6.5 6.5 6.5 6.5 6.5 6.5 6.8 7.0 6.9 6.5 6.5 6.5 6.5 6.5 6.5 6.5 6.5 6.5 6.5 6.5 6.5 6.5 6.5 6.5 6.5 6.5 6.6 6.7 6.3 6.5 6.5
4.2 5.6 5.3 6.7 6.9 6.7 6.6 6.5 6.5 6.5 6.5 6.5 6.5 6.5 6.5 6.5 6.5 6.5 6.5 6.5 6.5 6.6 6.5 6.5 6.5 6.5 6.5 6.5 6.5 6.5 6.5 6.5 6.5 6.5 6.5 6.5 6.5 6.5 6.6 6.9 6.3 6.3 6.1 6.3 6.1
3.4 3.9 7.0 7.1 6.7 6.5 6.5 6.5 6.5 6.8 6.9 7.1 6.7 6.5 6.5 6.6 7.1 7.2 7.4 7.2 6.8 6.5 6.5 6.5 6.5 6.5 6.5 6.5 6.5 6.5 6.5 6.5 6.5 6.5 6.5 6.5 6.5 6.5 6.5 6.5 6.5 6.7 6.0 6.2 6.0
Wind_Speed
6 8 9 9 9 11 13 13 14 14 15 16 18 19 20 22 19 9 13 14 14 21 23 13 9 8 11 8 10 8 10 16 21 18 16 10 10 9 2 8 3 6 4 5 18
4 5 7 8 9 11 12 13 14 16 18 19 19 20 22 17 2 14 11 19 19 19 13 12 9 9 8 7 8 11 13 23 19 17 18 16 13 12 6 11 14 10 5 3 17
5 6 7 9 10 12 13 14 15 17 18 19 21 22 23 11 2 7 17 21 19 17 10 7 9 10 12 13 15 12 20 18 17 17 14 18 14 13 11 14 12 16 13 13 17
4 6 7 8 10 11 13 15 16 16 18 19 21 24 24 3 2 9 17 19 16 13 9 8 7 6 8 12 16 21 18 16 20 20 14 20 17 18 14 15 5 5 8 17 19
6 7 8 8 9 12 13 15 17 17 17 18 20 21 8 5 5 7 15 17 13 11 9 9 7 6 9 9 14 20 17 19 18 20 20 19 22 19 19 13 11 7 8 18 18
9 8 8 9 10 11 12 15 17 18 18 17 17 20 5 9 6 9 13 10 11 11 9 8 5 7 9 10 13 13 15 16 14 18 21 22 24 23 24 20 18 11 12 16 20
6 7 7 8 9 11 13 15 18 17 17 13 12 9 3 7 7 11 12 9 7 8 9 6 7 7 8 8 9 15 19 20 20 16 21 18 26 29 22 22 21 14 14 16 19
6 6 6 7 8 10 13 16 18 16 11 6 4 4 3 4 11 11 11 8 8 9 4 6 6 9 11 11 14 17 18 18 15 24 21 16 34 22 22 25 24 23 16 15 19
7 7 6 6 8 10 13 15 9 5 4 2 3 5 4 5 15 12 10 10 11 4 7 5 6 6 7 10 12 11 13 17 17 19 17 26 33 21 19 18 26 24 21 17 16
7 6 5 5 8 12 13 7 3 4 3 2 2 3 3 10 12 11 11 9 5 9 3 3 3 6 8 7 8 11 13 16 17 16 19 20 27 24 24 21 24 23 21 21 18
6 4 3 3 8 10 8 3 3 3 7 5 5 4 6 13 4 6 9 10 5 7 6 5 6 9 13 12 15 16 18 22 19 19 20 21 23 19 20 18 16 22 23 23 19
5 4 2 1 5 11 5 4 3 2 1 1 4 5 4 5 7 8 10 8 9 10 8 9 12 6 10 13 14 15 18 20 19 18 21 24 28 25 24 26 19 18 23 22 18
6 6 3 2 3 4 8 4 3 2 3 1 2 4 6 8 6 8 9 10 10 9 10 10 15 17 10 14 15 15 16 18 21 18 22 22 32 29 27 28 25 22 22 21 18
8 6 3 2 3 1 3 3 3 1 1 5 2 2 6 7 3 7 4 5 4 7 11 8 5 11 14 17 14 16 15 15 17 15 12 11 12 16 16 26 29 25 23 23 21
9 6 2 0 2 1 3 3 1 3 2 6 3 4 11 4 10 3 8 5 8 11 4 7 13 14 17 16 13 13 12 14 16 16 17 19 13 7 18 26 24 26 24 25 24
10 8 5 3 3 2 2 0 3 0 0 4 5 8 10 1 5 7 4 3 9 8 7 16 18 12 9 12 13 13 14 16 16 13 14 16 16 17 17 21 17 17 25 21 24
10 6 2 2 2 3 1 2 1 2 1 5 4 8 10 7 6 7 11 9 7 8 11 17 8 3 5 10 9 9 10 5 4 6 10 12 14 24 13 20 23 24 22 23 22
11 5 7 6 3 1 2 2 1 1 2 3 4 9 4 9 5 12 8 6 6 5 11 9 9 1 2 10 10 17 5 4 8 8 12 18 8 13 11 9 12 13 19 16 21
13 2 2 6 4 2 1 1 1 2 2 4 5 3 1 4 6 8 6 3 5 7 6 6 7 22 22 12 2 0 5 2 7 18 12 8 15 22 19 7 9 13 15 18 17
4 3 2 7 3 2 3 2 1 1 2 0 2 1 3 5 7 9 5 1 4 1 10 6 13 12 9 10 11 7 5 5 3 5 8 8 14 12 10 15 18 17 16 16 20
3 2 2 4 3 3 1 2 3 4 2 1 1 2 4 4 5 4 5 6 2 8 13 14 6 13 17 3 10 4 2 4 5 5 5 7 6 6 15 17 20 20 20 17 20
3 1 2 3 2 2 1 3 2 4 5 5 3 5 2 3 5 4 4 3 3 10 11 9 5 10 21 22 9 4 6 8 5 6 7 9 10 9 13 17 14 17 12 9 2
4 2 1 3 3 2 0 3 3 5 5 4 4 5 2 3 4 7 6 2 6 10 4 7 3 8 7 2 4 10 17 12 11 6 13 6 4 9 15 15 12 11 5 4 5
4 3 1 1 1 4 4 3 2 6 5 5 3 4 3 5 7 6 5 5 8 8 5 5 4 8 11 18 16 15 20 18 9 4 8 7 13 15 15 15 12 8 5 5 8
0 2 2 4 4 5 5 5 4 5 6 6 4 9 6 4 5 6 5 8 9 3 4 6 9 13 16 19 20 20 16 12 10 10 5 12 13 11 10 13 8 6 4 4 9
5 4 2 2 4 9 4 6 8 3 6 5 8 2 9 7 8 9 10 9 7 3 9 5 5 12 17 14 9 16 8 11 8 12 10 17 10 14 13 11 9 7 6 6 7
1 1 2 7 6 6 5 5 8 7 8 5 6 6 10 14 12 14 13 12 12 10 3 5 5 7 6 12 17 2 11 8 3 9 11 9 12 19 13 12 14 10 7 7 8
Wind_Direction
34 27 21 16 9 4 1 1 358 355 357 354 349 345 345 339 317 50 40 351 333 332 314 318 290 271 281 258 240 247 240 239 240 240 254 243 236 207 317 256 209 192 292 22 140
35 21 16 11 5 359 358 352 349 348 349 350 347 345 344 339 322 53 360 345 339 331 336 341 331 314 261 236 227 221 231 242 243 246 253 255 226 238 215 220 226 218 187 160 145
22 11 9 3 359 355 352 350 345 343 343 345 343 341 341 324 243 20 352 345 341 329 329 315 302 286 256 241 238 240 247 256 256 261 246 264 240 243 233 242 228 234 201 167 165
353 355 351 345 345 344 344 343 343 341 338 339 342 339 332 272 15 348 340 342 329 331 330 337 321 285 259 238 230 251 253 265 265 271 253 257 258 255 246 255 354 256 261 174 179
317 319 320 324 330 333 335 335 337 336 334 336 339 337 328 70 29 331 335 340 347 350 0 349 340 331 274 286 280 261 257 269 265 260 263 257 256 259 250 250 257 229 273 188 190
305 309 305 310 316 319 324 330 330 329 330 332 334 326 314 61 334 322 335 326 348 351 351 351 347 326 283 281 276 296 297 281 285 272 263 258 259 255 253 257 261 247 234 210 206
309 304 308 312 311 316 323 324 320 320 316 321 329 329 4 27 323 333 324 325 322 329 327 351 322 299 338 280 296 285 285 276 257 255 260 271 260 249 253 254 251 241 227 224 214
301 304 303 308 312 316 320 319 317 320 322 334 323 318 51 323 320 341 346 343 340 317 298 309 302 284 268 286 286 279 271 265 251 244 242 233 261 252 239 243 243 245 226 227 216
291 287 300 313 317 318 318 314 322 344 355 340 290 324 52 307 353 335 344 336 322 318 309 280 276 273 278 263 278 241 262 266 275 239 250 230 256 254 258 257 241 242 242 221 222
281 283 293 312 323 321 319 309 339 263 257 241 230 242 79 347 333 319 333 329 316 320 267 312 272 280 263 265 271 303 286 275 268 265 272 262 268 256 245 247 253 242 242 236 214
289 259 276 321 342 336 326 245 241 174 36 28 346 323 333 339 312 327 347 321 308 276 332 333 294 292 306 298 292 289 285 281 278 289 304 288 284 280 284 287 288 257 236 244 216
245 224 219 310 350 354 353 51 41 0 322 4 308 294 305 342 306 357 337 343 332 328 331 294 281 346 323 298 289 288 281 278 278 262 267 282 273 260 257 263 259 267 259 246 232
201 182 186 268 309 15 68 51 348 347 277 119 331 316 333 332 324 326 334 327 325 329 332 297 289 312 301 291 292 291 279 278 277 279 274 278 276 269 254 260 258 247 256 264 273
176 164 174 259 260 354 57 16 353 319 262 356 358 56 322 319 251 308 310 316 299 322 326 289 304 299 303 290 294 291 297 300 278 276 270 272 281 276 261 245 239 239 242 248 251
159 148 164 339 87 2 38 8 327 239 281 1 344 338 322 326 326 134 328 277 296 318 297 293 313 314 300 295 303 283 296 289 281 276 278 256 268 289 238 245 247 231 228 237 236
147 137 130 111 83 42 13 35 241 184 323 341 319 342 348 270 321 307 326 245 278 297 250 271 276 270 267 306 289 280 284 283 272 261 255 256 240 277 250 258 261 254 241 228 225
130 104 51 20 69 346 3 240 359 17 29 345 335 338 334 323 320 349 338 23 28 338 341 321 293 206 256 293 308 244 283 287 245 219 255 251 229 243 274 265 261 253 249 239 225
129 105 64 57 15 20 251 15 301 100 288 348 315 326 332 350 328 332 330 354 70 22 308 333 318 274 69 292 299 298 248 264 294 291 311 306 249 245 246 277 302 292 278 282 226
139 108 101 16 360 289 349 310 343 182 100 331 310 301 327 345 331 330 329 313 11 29 1 306 274 319 299 311 242 323 242 233 276 257 263 240 266 282 267 261 317 306 298 279 266
150 161 85 334 331 252 72 270 197 171 160 50 316 341 318 330 335 352 316 332 341 353 351 299 294 285 286 294 267 223 351 275 227 286 304 278 250 258 358 320 307 303 296 284 271
161 194 68 332 259 59 172 209 217 204 175 210 298 275 258 313 306 311 280 284 317 330 328 303 247 293 311 246 303 286 261 239 259 267 290 315 321 355 330 323 302 300 298 292 271
170 197 22 289 64 70 199 195 224 179 193 244 268 249 274 294 279 268 263 251 297 329 313 318 296 285 284 282 258 247 279 286 283 285 280 273 277 358 334 323 302 303 310 306 184
154 109 87 285 176 168 166 249 229 201 208 214 225 227 214 273 292 227 269 309 339 335 318 337 270 305 305 163 194 309 310 298 287 273 266 290 325 0 332 320 319 314 314 9 40
153 145 18 61 256 133 177 205 226 217 239 224 244 227 248 265 235 281 291 320 334 314 339 296 263 266 277 287 304 301 305 312 293 266 319 287 312 322 328 318 328 338 352 80 81
248 179 207 168 221 172 198 168 174 217 224 218 246 221 201 268 266 239 256 302 315 106 311 314 271 278 279 281 286 279 291 317 331 346 291 321 312 318 342 334 328 332 358 56 90
153 154 197 107 164 163 185 211 206 200 198 220 228 208 221 233 233 292 306 311 280 277 336 300 278 314 293 278 263 295 303 335 3 355 335 319 307 333 353 346 2 10 25 53 74
117 56 186 155 160 177 203 196 210 189 217 245 235 270 253 259 272 277 276 268 261 287 290 273 304 324 273 311 312 212 359 324 303 22 350 343 307 314 343 3 3 16 37 63 72